Cork, Ireland

2:45 AM IST on May 25, 2017 (GMT +0100)
Cork

Weather History for EICK - January, 2014

Change the Weather History Date:

Thursday, January 2, 2014

  Actual Average Record
Temperature  
Mean Temperature 42 °F -  
Max Temperature 50 °F 46 °F 53 °F (2013)
Min Temperature 35 °F 37 °F 26 °F (1997)
Degree Days  
Heating Degree Days 22    
Moisture  
Dew Point 40 °F    
Average Humidity 90    
Maximum Humidity 100    
Minimum Humidity 60    
Precipitation  
Precipitation 0.31 in 0.19 in - ()
Sea Level Pressure  
Sea Level Pressure 29.07 in    
Wind  
Wind Speed 12 mph ()    
Max Wind Speed 33 mph    
Max Gust Speed 52 mph    
Visibility 8.7 miles    
Events Rain    
Averages and records for this station are not official NWS values.
T = Trace of Precipitation, MM = Missing Value Source: Averaged Metar Reports

Daily Weather History Graph

Daily Weather History Graph

Search for Another Location

Airport or City:

Trip Planner

Search our weather history database for the weather conditions in past years. The results will help you decide how hot, cold, wet, or windy it might be!

Date:

Astronomy

Jan. 02, 2014 Rise Set
Actual Time 8:41 AM GMT 4:34 PM GMT
Civil Twilight 8:00 AM GMT 5:15 PM GMT
Nautical Twilight 7:17 AM GMT 5:58 PM GMT
Astronomical Twilight 6:36 AM GMT 6:39 PM GMT
Moon 8:58 AM GMT (1/2) 6:31 PM GMT (1/2)
Length of Visible Light 9h 14m
Length of Day
7h 53m
New Moon, 2% of the Moon is Illuminated
Jan 2
New Moon
Jan 8
First Quarter
Jan 16
Full
Jan 24
Last Quarter
Jan 30
New

Hourly Weather History & Observations

Time (GMT) Temp. Windchill Dew Point Humidity Pressure Visibility Wind Dir Wind Speed Gust Speed Precip Events Conditions
12:00 AM 38 °F - 36 °F 92% 29.10 in 16 mi WSW 8.9 mph - -   Partly Cloudy
12:00 AM 39.2 °F 33.0 °F 37.4 °F 93% 29.06 in 6.2 mi WSW 9.2 mph - N/A   Partly Cloudy
12:30 AM 37.4 °F 32.1 °F 35.6 °F 93% 29.09 in 6.2 mi SW 6.9 mph - N/A   Partly Cloudy
1:00 AM 37 °F - 35 °F 92% 29.13 in 16 mi WSW 6.7 mph - -   Scattered Clouds
1:00 AM 37.4 °F 32.1 °F 35.6 °F 93% 29.09 in 6.2 mi WSW 6.9 mph - N/A   Partly Cloudy
1:30 AM 37.4 °F 32.1 °F 35.6 °F 93% 29.09 in 6.2 mi WSW 6.9 mph - N/A   Partly Cloudy
2:00 AM 36 °F - 35 °F 94% 29.13 in 19 mi SW 8.9 mph - -   Scattered Clouds
2:00 AM 35.6 °F 28.6 °F 35.6 °F 100% 29.09 in 6.2 mi SW 9.2 mph - N/A   Partly Cloudy
2:30 AM 35.6 °F 29.9 °F 35.6 °F 100% 29.12 in 6.2 mi SW 6.9 mph - N/A   Partly Cloudy
3:00 AM 37 °F - 36 °F 94% 29.16 in 19 mi SW 8.9 mph - -   Scattered Clouds
3:00 AM 37.4 °F 30.8 °F 35.6 °F 93% 29.12 in 6.2 mi SW 9.2 mph - N/A   Partly Cloudy
3:30 AM 37.4 °F 30.8 °F 37.4 °F 100% 29.15 in 6.2 mi SSW 9.2 mph - N/A   Partly Cloudy
4:00 AM 41 °F - 38 °F 87% 29.17 in 16 mi WSW 13.4 mph - - Rain Light Rain Showers
4:00 AM 41.0 °F 33.5 °F 39.2 °F 93% 29.15 in 6.2 mi WSW 13.8 mph - N/A Rain Light Rain Showers
4:30 AM 37.4 °F 32.1 °F 35.6 °F 93% 29.15 in 6.2 mi WSW 6.9 mph - N/A   Partly Cloudy
5:00 AM 40 °F - 38 °F 89% 29.18 in 16 mi WSW 11.2 mph - - Rain Light Rain Showers
5:00 AM 39.2 °F 32.0 °F 37.4 °F 93% 29.15 in 6.2 mi WSW 11.5 mph - N/A   Scattered Clouds
5:30 AM 37.4 °F 30.8 °F 35.6 °F 93% 29.15 in 6.2 mi SW 9.2 mph - N/A   Partly Cloudy
6:00 AM 38 °F - 36 °F 90% 29.19 in 16 mi SW 8.9 mph - -   Partly Cloudy
6:00 AM 37.4 °F 30.8 °F 35.6 °F 93% 29.15 in 6.2 mi SW 9.2 mph - N/A   Partly Cloudy
6:30 AM 39.2 °F 33.0 °F 37.4 °F 93% 29.15 in 6.2 mi SW 9.2 mph - N/A   Partly Cloudy
7:00 AM 38 °F - 37 °F 94% 29.20 in 16 mi SW 8.9 mph - -   Scattered Clouds
7:00 AM 39.2 °F 33.0 °F 37.4 °F 93% 29.18 in 6.2 mi SW 9.2 mph - N/A   Partly Cloudy
7:30 AM 41.0 °F 34.3 °F 39.2 °F 93% 29.18 in 6.2 mi SW 11.5 mph - N/A Rain Light Rain Showers
8:00 AM 39 °F - 37 °F 91% 29.21 in 16 mi SW 11.2 mph - - Rain Light Rain Showers
8:00 AM 39.2 °F 32.5 °F 37.4 °F 93% 29.18 in 6.2 mi SW 10.4 mph - N/A   Partly Cloudy
8:30 AM 41.0 °F 33.9 °F 39.2 °F 93% 29.18 in 6.2 mi SW 12.7 mph - N/A   Partly Cloudy
9:00 AM 39 °F - 37 °F 90% 29.23 in 16 mi SW 8.9 mph - -   Partly Cloudy
9:00 AM 39.2 °F 33.0 °F 37.4 °F 93% 29.21 in 6.2 mi SW 9.2 mph - N/A   Partly Cloudy
9:30 AM 39.2 °F 34.2 °F 37.4 °F 93% 29.21 in 6.2 mi SW 6.9 mph - N/A   Partly Cloudy
10:00 AM 41 °F - 39 °F 90% 29.23 in 16 mi SW 8.9 mph - -   Scattered Clouds
10:00 AM 41.0 °F 35.8 °F 39.2 °F 93% 29.21 in 6.2 mi SW 8.1 mph - N/A   Partly Cloudy
10:30 AM 42.8 °F 37.5 °F 41.0 °F 93% 29.21 in 6.2 mi SSW 9.2 mph - N/A Rain Rain
11:00 AM 42 °F - 40 °F 91% 29.24 in 16 mi SW 11.2 mph - -   Scattered Clouds
11:00 AM 42.8 °F 37.0 °F 41.0 °F 93% 29.21 in 6.2 mi SW 10.4 mph - N/A   Partly Cloudy
11:30 AM 42.8 °F 37.5 °F 42.8 °F 100% 29.21 in 6.2 mi SSW 9.2 mph - N/A   Scattered Clouds
12:00 PM 46 °F - 44 °F 88% 29.21 in 16 mi SSW 13.4 mph - - Rain Light Rain Showers
12:00 PM 46.4 °F 40.7 °F 42.8 °F 87% 29.18 in 6.2 mi SSW 12.7 mph - N/A   Scattered Clouds
12:30 PM 46.4 °F 39.0 °F 42.8 °F 87% 29.18 in 6.2 mi SSW 19.6 mph - N/A   Scattered Clouds
1:00 PM 46 °F - 43 °F 85% 29.19 in 16 mi South 15.7 mph - - Rain Light Rain Showers
1:00 PM 46.4 °F 40.1 °F 42.8 °F 87% 29.18 in 6.2 mi South 15.0 mph - N/A   Mostly Cloudy
1:30 PM 46.4 °F 40.4 °F 44.6 °F 93% 29.15 in 6.2 mi South 13.8 mph - N/A Rain Light Rain Showers
2:00 PM 46 °F - 44 °F 90% 29.15 in 12 mi South 15.7 mph - - Rain Light Rain Showers
2:00 PM 46.4 °F 40.1 °F 44.6 °F 93% 29.12 in 6.2 mi South 15.0 mph - N/A   Mostly Cloudy
2:30 PM 46.4 °F 39.8 °F 44.6 °F 93% 29.12 in 6.2 mi South 16.1 mph - N/A Rain Light Rain
3:00 PM 44 °F - 41 °F 84% 29.12 in 16 mi South 20.1 mph - - Rain Light Rain
3:00 PM 44.6 °F 36.6 °F 41.0 °F 87% 29.09 in 6.2 mi South 19.6 mph - N/A Rain Light Rain
3:30 PM 44.6 °F 38.1 °F 41.0 °F 87% 29.06 in 6.2 mi South 13.8 mph - N/A Rain Light Rain
4:00 PM 45 °F - 42 °F 87% 29.05 in 12 mi South 17.9 mph - - Rain Light Rain
4:00 PM 44.6 °F 36.9 °F 42.8 °F 93% 29.03 in 6.2 mi South 18.4 mph - N/A Rain Light Rain
4:30 PM 46.4 °F 38.1 °F 44.6 °F 93% 28.97 in 5.6 mi SSE 24.2 mph 38.0 mph N/A Rain Rain
5:00 PM 46 °F - 45 °F 95% 28.96 in 4 mi SSE 22.4 mph - - Rain Rain
5:00 PM 46.4 °F 38.3 °F 44.6 °F 93% 28.94 in 4.3 mi SSE 23.0 mph - N/A Rain Rain
5:30 PM 46.4 °F 37.4 °F 46.4 °F 100% 28.88 in 4.3 mi SSE 28.8 mph 44.9 mph N/A Rain Rain
6:00 PM 48 °F - 48 °F 98% 28.88 in 4 mi South 24.6 mph - - Rain Rain
6:00 PM 48.2 °F - 48.2 °F 100% 28.85 in 3.7 mi South 25.3 mph 50.6 mph N/A Rain Rain
6:30 PM 50.0 °F - 48.2 °F 94% 28.85 in 6.2 mi SSW 26.5 mph 39.1 mph N/A Rain Light Rain
7:00 PM 49 °F - 47 °F 90% 28.89 in 11 mi SW 24.6 mph - - Rain Light Rain
7:00 PM 48.2 °F - 46.4 °F 93% 28.85 in 6.2 mi SW 24.2 mph 38.0 mph N/A   Mostly Cloudy
7:30 PM 48.2 °F - 44.6 °F 87% 28.85 in 6.2 mi SW 25.3 mph - N/A   Mostly Cloudy
8:00 PM 47 °F - 44 °F 85% 28.88 in 12 mi SW 22.4 mph - -   Mostly Cloudy
8:00 PM 46.4 °F 38.3 °F 44.6 °F 93% 28.85 in 6.2 mi SW 23.0 mph 38.0 mph N/A   Mostly Cloudy
8:30 PM 48.2 °F - 42.8 °F 82% 28.85 in 6.2 mi SW 31.1 mph 48.3 mph N/A   Mostly Cloudy
9:00 PM 45 °F - 41 °F 79% 28.88 in 12 mi SW 31.3 mph - - Rain Light Rain
9:00 PM 44.6 °F 34.4 °F 41.0 °F 87% 28.85 in 6.2 mi SW 32.2 mph 44.9 mph N/A   Mostly Cloudy
9:30 PM 46.4 °F 37.0 °F 39.2 °F 76% 28.85 in 6.2 mi SW 31.1 mph 46.0 mph N/A Rain Light Rain
10:00 PM 45 °F - 38 °F 68% 28.89 in 12 mi SW 26.8 mph - -   Mostly Cloudy
10:00 PM 44.6 °F 35.3 °F 37.4 °F 76% 28.85 in 6.2 mi SW 26.5 mph 41.4 mph N/A   Mostly Cloudy
10:30 PM 46.4 °F 36.7 °F 37.4 °F 71% 28.85 in 6.2 mi SW 33.4 mph 50.6 mph N/A   Mostly Cloudy
11:00 PM 46 °F - 37 °F 60% 28.87 in 12 mi SW 31.3 mph - -   Mostly Cloudy
11:00 PM 46.4 °F 37.0 °F 37.4 °F 71% 28.85 in 6.2 mi SW 31.1 mph 47.2 mph N/A   Mostly Cloudy
11:30 PM 46.4 °F 36.9 °F 37.4 °F 71% 28.85 in 6.2 mi SW 32.2 mph 51.8 mph N/A   Mostly Cloudy